BARN66 YAMB-YWLM

Flight info

Callsign BARN66
Flight time N/A
Altitude 40000
Route AMB DCT COWIE DCT 274036S1532011E 274747S1532530E 280757S1534459E DCT SEMAJ DCT AM116/N0447F410 DCT WM300/N0450F400 DCT WM303 DCT WM306 DCT WM313 DCT NELSN
Aircraft F35/M-SDE3RV/LB1

Departure

Time 2026-04-15 01:39
Airport RAAF Base Amberley (YAMB)

Arrival

Time N/A
Airport Newcastle Airport (YWLM)
Time Latitude Longitude Altitude Speed Heading
2026-04-15 01:28 -27.63262 152.70631 99 ft 0 kts
2026-04-15 01:36 -27.63235 152.70641 99 ft 7 kts 37°
2026-04-15 01:36 -27.63183 152.70694 98 ft 14 kts 50°
2026-04-15 01:36 -27.63235 152.70776 97 ft 20 kts 159°
2026-04-15 01:36 -27.63391 152.70846 96 ft 29 kts 158°
2026-04-15 01:37 -27.63594 152.70932 98 ft 32 kts 159°
2026-04-15 01:37 -27.63812 152.71028 100 ft 32 kts 158°
2026-04-15 01:37 -27.64010 152.71115 103 ft 31 kts 158°
2026-04-15 01:37 -27.64204 152.71199 102 ft 29 kts 161°
2026-04-15 01:38 -27.64391 152.71282 98 ft 29 kts 156°
2026-04-15 01:38 -27.64576 152.71360 98 ft 28 kts 158°
2026-04-15 01:38 -27.64747 152.71454 98 ft 26 kts 128°
2026-04-15 01:38 -27.64723 152.71614 101 ft 19 kts 32°
2026-04-15 01:39 -27.64412 152.71507 101 ft 123 kts 338°
2026-04-15 01:39 -27.63027 152.70894 128 ft 294 kts 338°
2026-04-15 01:39 -27.60863 152.69888 828 ft 419 kts 337°
2026-04-15 01:39 -27.57697 152.68366 2144 ft 550 kts 336°
2026-04-15 01:40 -27.54075 152.66719 3689 ft 556 kts 343°
2026-04-15 01:40 -27.50157 152.66100 5248 ft 557 kts
2026-04-15 01:40 -27.46358 152.66784 6752 ft 555 kts 18°
2026-04-15 01:40 -27.43099 152.68549 8121 ft 555 kts 34°
2026-04-15 01:41 -27.40229 152.71506 9647 ft 555 kts 51°
2026-04-15 01:41 -27.38285 152.75263 11085 ft 558 kts 69°
2026-04-15 01:41 -27.37409 152.79424 12474 ft 560 kts 86°
2026-04-15 01:41 -27.37601 152.83562 13853 ft 562 kts 102°
2026-04-15 01:42 -27.38906 152.87732 15189 ft 559 kts 120°
2026-04-15 01:42 -27.41158 152.91194 16504 ft 554 kts 137°
2026-04-15 01:42 -27.44199 152.93853 17896 ft 548 kts 150°
2026-04-15 01:42 -27.47355 152.96036 19160 ft 545 kts 152°
2026-04-15 01:43 -27.50555 152.98161 20362 ft 544 kts 153°
2026-04-15 01:43 -27.53863 153.00416 21629 ft 543 kts 151°
2026-04-15 01:43 -27.57011 153.02769 22903 ft 543 kts 148°
2026-04-15 01:43 -27.60034 153.05332 24112 ft 546 kts 145°
2026-04-15 01:44 -27.62696 153.08401 25168 ft 557 kts 129°
2026-04-15 01:44 -27.64536 153.12309 26242 ft 572 kts 111°
2026-04-15 01:44 -27.65391 153.16713 27352 ft 579 kts 97°
2026-04-15 01:44 -27.65773 153.21253 28486 ft 585 kts 96°
2026-04-15 01:45 -27.66208 153.25833 29625 ft 586 kts 99°
2026-04-15 01:45 -27.67081 153.30313 30642 ft 585 kts 114°
2026-04-15 01:45 -27.68912 153.34362 31558 ft 578 kts 131°
2026-04-15 01:45 -27.71574 153.37652 32482 ft 560 kts 149°
2026-04-15 01:46 -27.74809 153.39955 33427 ft 546 kts 163°
2026-04-15 01:46 -27.78230 153.41880 34360 ft 550 kts 159°
2026-04-15 01:46 -27.81488 153.44166 35169 ft 552 kts 152°
2026-04-15 01:46 -27.84450 153.46923 35939 ft 560 kts 144°
2026-04-15 01:47 -27.87343 153.49993 36765 ft 559 kts 146°
2026-04-15 01:47 -27.90230 153.52709 37543 ft 548 kts 149°
2026-04-15 01:47 -27.93206 153.55553 38345 ft 550 kts 146°
2026-04-15 01:47 -27.96079 153.58380 39075 ft 555 kts 148°
2026-04-15 01:48 -27.99044 153.61183 39554 ft 575 kts 147°
2026-04-15 01:48 -28.02081 153.64170 39784 ft 574 kts 147°
2026-04-15 01:48 -28.05118 153.67091 39893 ft 572 kts 148°
2026-04-15 01:48 -28.08062 153.69936 39943 ft 573 kts 147°
2026-04-15 01:49 -28.14536 153.74979 40025 ft 547 kts 166°
2026-04-15 01:49 -28.18079 153.76463 40036 ft 534 kts 176°
2026-04-15 01:49 -28.21677 153.77347 40035 ft 527 kts 180°
2026-04-15 01:50 -28.28840 153.79145 40024 ft 532 kts 175°
2026-04-15 01:50 -28.36042 153.81024 40020 ft 531 kts 176°
2026-04-15 01:51 -28.43223 153.82946 40018 ft 530 kts 177°
2026-04-15 01:51 -28.50411 153.84882 40016 ft 530 kts 177°
2026-04-15 01:52 -28.56385 153.86477 40014 ft 530 kts 176°
2026-04-15 01:52 -28.64769 153.88659 40013 ft 520 kts 184°
2026-04-15 01:53 -28.67100 153.88809 40044 ft 505 kts 192°
2026-04-15 01:53 -28.70548 153.88549 40034 ft 501 kts 196°
2026-04-15 01:53 -28.74005 153.87939 40041 ft 488 kts 204°
2026-04-15 01:53 -28.77227 153.86938 40029 ft 483 kts 206°
2026-04-15 01:54 -28.83854 153.85142 40016 ft 486 kts 204°
2026-04-15 01:54 -28.90429 153.83315 40011 ft 488 kts 203°
2026-04-15 01:55 -28.97051 153.81500 40005 ft 486 kts 203°
2026-04-15 01:55 -29.03585 153.79729 40005 ft 486 kts 204°
2026-04-15 01:56 -29.10167 153.77931 40003 ft 486 kts 204°
2026-04-15 01:56 -29.16730 153.76131 40005 ft 485 kts 204°
2026-04-15 01:57 -29.23314 153.74328 39998 ft 485 kts 204°
2026-04-15 01:57 -29.29868 153.72531 40001 ft 485 kts 204°
2026-04-15 01:58 -29.36440 153.70725 39997 ft 485 kts 204°
2026-04-15 01:58 -29.43000 153.68921 39999 ft 485 kts 204°
2026-04-15 01:59 -29.49515 153.67126 39998 ft 484 kts 204°
2026-04-15 01:59 -29.56063 153.65320 39993 ft 484 kts 204°
2026-04-15 02:00 -29.62595 153.63507 39990 ft 483 kts 205°
2026-04-15 02:00 -29.69230 153.61928 39984 ft 493 kts 199°
2026-04-15 02:01 -29.75926 153.60556 39992 ft 490 kts 200°
2026-04-15 02:01 -29.82602 153.59229 39989 ft 488 kts 201°
2026-04-15 02:02 -29.89337 153.57864 39986 ft 489 kts 201°
2026-04-15 02:02 -29.96033 153.56489 39986 ft 489 kts 201°
2026-04-15 02:03 -30.02715 153.55125 39986 ft 488 kts 201°
2026-04-15 02:03 -30.09392 153.53765 39989 ft 488 kts 201°
2026-04-15 02:04 -30.16051 153.52399 39980 ft 488 kts 201°